Time,TemperatureF,DewpointF,PressureIn,WindDirection,WindDirectionDegrees,WindSpeedMPH,WindSpeedGustMPH,Humidity,HourlyPrecipIn,Conditions,Clouds,dailyrainin,SoftwareType,DateUTC
2013-01-21 00:03:00,-10.0,-17.0,30.46,NW,306,14.0,-999.0,70,-99.99,,,-99.99,,2013-01-21 06:03:00,
2013-01-21 00:12:00,-10.0,-17.0,30.46,NW,306,14.0,-999.0,70,-99.99,,,-99.99,,2013-01-21 06:12:00,
2013-01-21 00:23:00,-11.0,-18.0,30.46,NW,309,9.0,-999.0,70,-99.99,,,-99.99,,2013-01-21 06:23:00,
2013-01-21 00:33:00,-11.0,-18.0,30.46,NW,317,10.0,-999.0,70,-99.99,,,-99.99,,2013-01-21 06:33:00,
2013-01-21 00:43:00,-11.0,-18.0,30.46,NW,317,10.0,-999.0,70,-99.99,,,-99.99,,2013-01-21 06:43:00,
2013-01-21 00:52:00,-11.0,-18.0,30.46,NW,317,10.0,-999.0,70,-99.99,,,-99.99,,2013-01-21 06:52:00,
2013-01-21 01:03:00,-11.0,-18.0,30.47,NW,309,9.0,-999.0,70,-99.99,,,-99.99,,2013-01-21 07:03:00,
2013-01-21 01:12:00,-11.0,-18.0,30.47,NW,309,9.0,-999.0,70,-99.99,,,-99.99,,2013-01-21 07:12:00,
2013-01-21 01:22:00,-11.0,-18.0,30.46,NW,315,11.0,-999.0,71,-99.99,,,-99.99,,2013-01-21 07:22:00,
2013-01-21 01:33:00,-11.0,-18.0,30.46,NW,311,10.0,-999.0,71,-99.99,,,-99.99,,2013-01-21 07:33:00,
2013-01-21 01:42:00,-11.0,-18.0,30.46,NW,311,10.0,-999.0,71,-99.99,,,-99.99,,2013-01-21 07:42:00,
2013-01-21 01:53:00,-12.0,-18.0,30.47,NW,317,10.0,-999.0,72,-99.99,,,-99.99,,2013-01-21 07:53:00,
2013-01-21 02:03:00,-12.0,-18.0,30.47,NW,304,12.0,-999.0,72,-99.99,,,-99.99,,2013-01-21 08:03:00,
2013-01-21 02:13:00,-12.0,-18.0,30.47,NW,304,12.0,-999.0,72,-99.99,,,-99.99,,2013-01-21 08:13:00,
2013-01-21 02:22:00,-12.0,-18.0,30.47,NW,306,10.0,-999.0,72,-99.99,,,-99.99,,2013-01-21 08:22:00,
2013-01-21 02:32:00,-12.0,-18.0,30.47,NW,309,10.0,-999.0,72,-99.99,,,-99.99,,2013-01-21 08:32:00,
2013-01-21 02:42:00,-12.0,-18.0,30.47,NW,309,10.0,-999.0,72,-99.99,,,-99.99,,2013-01-21 08:42:00,
2013-01-21 02:53:00,-12.0,-18.0,30.47,NW,313,9.0,-999.0,72,-99.99,,,-99.99,,2013-01-21 08:53:00,
2013-01-21 03:02:00,-12.0,-18.0,30.47,NW,310,11.0,-999.0,72,-99.99,,,-99.99,,2013-01-21 09:02:00,
2013-01-21 03:12:00,-12.0,-18.0,30.47,NW,310,11.0,-999.0,72,-99.99,,,-99.99,,2013-01-21 09:12:00,
2013-01-21 03:23:00,-12.0,-18.0,30.47,WNW,303,10.0,-999.0,72,-99.99,,,-99.99,,2013-01-21 09:23:00,
2013-01-21 03:33:00,-12.0,-18.0,30.47,North,360,9.0,-999.0,72,-99.99,,,-99.99,,2013-01-21 09:33:00,
2013-01-21 03:42:00,-12.0,-18.0,30.47,North,360,9.0,-999.0,72,-99.99,,,-99.99,,2013-01-21 09:42:00,
2013-01-21 03:53:00,-12.0,-18.0,30.47,NW,306,8.0,-999.0,73,-99.99,,,-99.99,,2013-01-21 09:53:00,
2013-01-21 04:02:00,-12.0,-18.0,30.47,NW,306,7.0,-999.0,73,-99.99,,,-99.99,,2013-01-21 10:02:00,
2013-01-21 04:12:00,-12.0,-18.0,30.47,NW,306,7.0,-999.0,73,-99.99,,,-99.99,,2013-01-21 10:12:00,
2013-01-21 04:22:00,-12.0,-18.0,30.46,NW,309,8.0,-999.0,73,-99.99,,,-99.99,,2013-01-21 10:22:00,
2013-01-21 04:32:00,-12.0,-18.0,30.46,NW,311,8.0,-999.0,73,-99.99,,,-99.99,,2013-01-21 10:32:00,
2013-01-21 04:43:00,-12.0,-18.0,30.46,NW,311,8.0,-999.0,73,-99.99,,,-99.99,,2013-01-21 10:43:00,
2013-01-21 04:53:00,-12.0,-18.0,30.46,NW,309,10.0,-999.0,72,-99.99,,,-99.99,,2013-01-21 10:53:00,
2013-01-21 05:02:00,-12.0,-18.0,30.46,NW,309,10.0,-999.0,72,-99.99,,,-99.99,,2013-01-21 11:02:00,
2013-01-21 05:13:00,-12.0,-18.0,30.46,NW,309,10.0,-999.0,72,-99.99,,,-99.99,,2013-01-21 11:13:00,
2013-01-21 05:23:00,-12.0,-18.0,30.46,NW,313,7.0,-999.0,73,-99.99,,,-99.99,,2013-01-21 11:23:00,
2013-01-21 05:33:00,-12.0,-18.0,30.46,NW,313,7.0,-999.0,73,-99.99,,,-99.99,,2013-01-21 11:33:00,
2013-01-21 05:43:00,-12.0,-18.0,30.46,NW,313,7.0,-999.0,73,-99.99,,,-99.99,,2013-01-21 11:43:00,
2013-01-21 05:53:00,-12.0,-18.0,30.46,NW,307,8.0,-999.0,72,-99.99,,,-99.99,,2013-01-21 11:53:00,
2013-01-21 06:02:00,-13.0,-19.0,30.46,NW,315,9.0,-999.0,72,-99.99,,,-99.99,,2013-01-21 12:02:00,
2013-01-21 06:12:00,-13.0,-19.0,30.46,NW,315,9.0,-999.0,72,-99.99,,,-99.99,,2013-01-21 12:12:00,
2013-01-21 06:22:00,-13.0,-19.0,30.45,NW,312,10.0,-999.0,72,-99.99,,,-99.99,,2013-01-21 12:22:00,
2013-01-21 06:32:00,-13.0,-19.0,30.45,NW,307,8.0,-999.0,72,-99.99,,,-99.99,,2013-01-21 12:32:00,
2013-01-21 06:42:00,-13.0,-19.0,30.45,NW,307,8.0,-999.0,72,-99.99,,,-99.99,,2013-01-21 12:42:00,
2013-01-21 06:52:00,-13.0,-19.0,30.45,NW,310,10.0,-999.0,72,-99.99,,,-99.99,,2013-01-21 12:52:00,
2013-01-21 07:02:00,-13.0,-19.0,30.45,NW,310,10.0,-999.0,72,-99.99,,,-99.99,,2013-01-21 13:02:00,
2013-01-21 07:13:00,-13.0,-19.0,30.45,NW,310,10.0,-999.0,72,-99.99,,,-99.99,,2013-01-21 13:13:00,
2013-01-21 07:23:00,-13.0,-19.0,30.45,NW,305,10.0,-999.0,72,-99.99,,,-99.99,,2013-01-21 13:23:00,
2013-01-21 07:33:00,-13.0,-19.0,30.44,NW,311,9.0,-999.0,72,-99.99,,,-99.99,,2013-01-21 13:33:00,
2013-01-21 07:43:00,-13.0,-19.0,30.44,NW,311,9.0,-999.0,72,-99.99,,,-99.99,,2013-01-21 13:43:00,
2013-01-21 07:53:00,-13.0,-19.0,30.45,NW,309,9.0,-999.0,72,-99.99,,,-99.99,,2013-01-21 13:53:00,
2013-01-21 08:03:00,-13.0,-19.0,30.45,NW,314,10.0,-999.0,72,-99.99,,,-99.99,,2013-01-21 14:03:00,
2013-01-21 08:12:00,-13.0,-19.0,30.45,NW,314,10.0,-999.0,72,-99.99,,,-99.99,,2013-01-21 14:12:00,
2013-01-21 08:23:00,-13.0,-19.0,30.45,NW,304,9.0,-999.0,72,-99.99,,,-99.99,,2013-01-21 14:23:00,
2013-01-21 08:32:00,-13.0,-19.0,30.45,NW,310,9.0,-999.0,72,-99.99,,,-99.99,,2013-01-21 14:32:00,
2013-01-21 08:43:00,-13.0,-19.0,30.45,NW,310,9.0,-999.0,72,-99.99,,,-99.99,,2013-01-21 14:43:00,
2013-01-21 08:53:00,-13.0,-19.0,30.45,NW,310,9.0,-999.0,72,-99.99,,,-99.99,,2013-01-21 14:53:00,
2013-01-21 09:03:00,-13.0,-19.0,30.46,NW,315,10.0,-999.0,72,-99.99,,,-99.99,,2013-01-21 15:03:00,
2013-01-21 09:13:00,-13.0,-19.0,30.46,NW,315,10.0,-999.0,72,-99.99,,,-99.99,,2013-01-21 15:13:00,
2013-01-21 09:23:00,-13.0,-20.0,30.46,NW,311,9.0,-999.0,71,-99.99,,,-99.99,,2013-01-21 15:23:00,
2013-01-21 09:33:00,-12.0,-19.0,30.47,NW,304,8.0,-999.0,71,-99.99,,,-99.99,,2013-01-21 15:33:00,
2013-01-21 09:43:00,-12.0,-19.0,30.47,NW,304,8.0,-999.0,71,-99.99,,,-99.99,,2013-01-21 15:43:00,
2013-01-21 09:53:00,-12.0,-19.0,30.47,NW,307,10.0,-999.0,71,-99.99,,,-99.99,,2013-01-21 15:53:00,
2013-01-21 10:03:00,-12.0,-19.0,30.47,NW,309,13.0,-999.0,70,-99.99,,,-99.99,,2013-01-21 16:03:00,
2013-01-21 10:12:00,-12.0,-19.0,30.47,NW,309,13.0,-999.0,70,-99.99,,,-99.99,,2013-01-21 16:12:00,
2013-01-21 10:23:00,-11.0,-18.0,30.48,NW,311,10.0,-999.0,70,-99.99,,,-99.99,,2013-01-21 16:23:00,
2013-01-21 10:33:00,-11.0,-18.0,30.47,NW,324,11.0,-999.0,70,-99.99,,,-99.99,,2013-01-21 16:33:00,
2013-01-21 10:43:00,-11.0,-18.0,30.47,NW,324,11.0,-999.0,70,-99.99,,,-99.99,,2013-01-21 16:43:00,
2013-01-21 10:53:00,-11.0,-18.0,30.48,NW,309,10.0,-999.0,70,-99.99,,,-99.99,,2013-01-21 16:53:00,
2013-01-21 11:02:00,-11.0,-18.0,30.48,NW,306,13.0,-999.0,69,-99.99,,,-99.99,,2013-01-21 17:02:00,
2013-01-21 11:12:00,-11.0,-18.0,30.48,NW,306,13.0,-999.0,69,-99.99,,,-99.99,,2013-01-21 17:12:00,
2013-01-21 11:22:00,-11.0,-18.0,30.48,NW,313,12.0,-999.0,69,-99.99,,,-99.99,,2013-01-21 17:22:00,
2013-01-21 11:33:00,-10.0,-17.0,30.48,NW,314,8.0,-999.0,70,-99.99,,,-99.99,,2013-01-21 17:33:00,
2013-01-21 11:43:00,-10.0,-17.0,30.48,NW,314,8.0,-999.0,70,-99.99,,,-99.99,,2013-01-21 17:43:00,
2013-01-21 11:53:00,-10.0,-17.0,30.47,North,360,9.0,-999.0,70,-99.99,,,-99.99,,2013-01-21 17:53:00,
2013-01-21 12:03:00,-9.0,-16.0,30.47,NW,317,10.0,-999.0,69,-99.99,,,-99.99,,2013-01-21 18:03:00,
2013-01-21 12:12:00,-9.0,-16.0,30.47,NW,317,10.0,-999.0,69,-99.99,,,-99.99,,2013-01-21 18:12:00,
2013-01-21 12:22:00,-9.0,-17.0,30.47,North,360,10.0,-999.0,68,-99.99,,,-99.99,,2013-01-21 18:22:00,
2013-01-21 12:33:00,-9.0,-16.0,30.46,WNW,283,11.0,-999.0,70,-99.99,,,-99.99,,2013-01-21 18:33:00,
2013-01-21 12:42:00,-9.0,-16.0,30.46,WNW,283,11.0,-999.0,70,-99.99,,,-99.99,,2013-01-21 18:42:00,
2013-01-21 12:52:00,-8.0,-15.0,30.45,NW,314,9.0,-999.0,69,-99.99,,,-99.99,,2013-01-21 18:52:00,
2013-01-21 13:03:00,-8.0,-15.0,30.45,NW,313,9.0,-999.0,70,-99.99,,,-99.99,,2013-01-21 19:03:00,
2013-01-21 13:12:00,-7.0,-14.0,30.44,NW,306,7.0,-999.0,70,-99.99,,,-99.99,,2013-01-21 19:12:00,
2013-01-21 13:22:00,-7.0,-14.0,30.44,NW,306,7.0,-999.0,70,-99.99,,,-99.99,,2013-01-21 19:22:00,
2013-01-21 13:33:00,-7.0,-14.0,30.44,NW,311,9.0,-999.0,71,-99.99,,,-99.99,,2013-01-21 19:33:00,
2013-01-21 13:42:00,-7.0,-14.0,30.44,NW,311,9.0,-999.0,71,-99.99,,,-99.99,,2013-01-21 19:42:00,
2013-01-21 13:53:00,-6.0,-13.0,30.43,NW,310,8.0,-999.0,70,-99.99,,,-99.99,,2013-01-21 19:53:00,
2013-01-21 14:03:00,-6.0,-13.0,30.43,WNW,294,7.0,-999.0,70,-99.99,,,-99.99,,2013-01-21 20:03:00,
2013-01-21 14:12:00,-6.0,-13.0,30.43,WNW,294,7.0,-999.0,70,-99.99,,,-99.99,,2013-01-21 20:12:00,
2013-01-21 14:23:00,-5.0,-12.0,30.42,WNW,296,8.0,-999.0,70,-99.99,,,-99.99,,2013-01-21 20:23:00,
2013-01-21 14:33:00,-5.0,-12.0,30.42,WNW,296,8.0,-999.0,70,-99.99,,,-99.99,,2013-01-21 20:33:00,
2013-01-21 14:43:00,-5.0,-12.0,30.42,WNW,296,8.0,-999.0,70,-99.99,,,-99.99,,2013-01-21 20:43:00,
2013-01-21 14:53:00,-4.0,-11.0,30.42,NW,306,7.0,-999.0,71,-99.99,,,-99.99,,2013-01-21 20:53:00,
2013-01-21 15:03:00,-4.0,-12.0,30.42,North,360,9.0,-999.0,69,-99.99,,,-99.99,,2013-01-21 21:03:00,
2013-01-21 15:12:00,-4.0,-12.0,30.42,North,360,9.0,-999.0,69,-99.99,,,-99.99,,2013-01-21 21:12:00,
2013-01-21 15:22:00,-3.0,-11.0,30.42,North,360,6.0,-999.0,69,-99.99,,,-99.99,,2013-01-21 21:22:00,
2013-01-21 15:33:00,-3.0,-11.0,30.42,NW,314,7.0,-999.0,69,-99.99,,,-99.99,,2013-01-21 21:33:00,
2013-01-21 15:43:00,-3.0,-11.0,30.42,NW,314,7.0,-999.0,69,-99.99,,,-99.99,,2013-01-21 21:43:00,
2013-01-21 15:53:00,-3.0,-11.0,30.42,NW,314,7.0,-999.0,69,-99.99,,,-99.99,,2013-01-21 21:53:00,
2013-01-21 16:03:00,-2.0,-10.0,30.41,North,360,6.0,-999.0,69,-99.99,,,-99.99,,2013-01-21 22:03:00,
2013-01-21 16:12:00,-2.0,-10.0,30.41,North,360,6.0,-999.0,69,-99.99,,,-99.99,,2013-01-21 22:12:00,
2013-01-21 16:23:00,-2.0,-10.0,30.40,NW,310,5.0,-999.0,69,-99.99,,,-99.99,,2013-01-21 22:23:00,
2013-01-21 16:33:00,-2.0,-9.0,30.40,NW,310,5.0,-999.0,70,-99.99,,,-99.99,,2013-01-21 22:33:00,
2013-01-21 16:42:00,-2.0,-9.0,30.40,NW,310,5.0,-999.0,70,-99.99,,,-99.99,,2013-01-21 22:42:00,
2013-01-21 16:53:00,-2.0,-10.0,30.40,NW,307,7.0,-999.0,69,-99.99,,,-99.99,,2013-01-21 22:53:00,
2013-01-21 17:03:00,-2.0,-10.0,30.40,NW,310,1.0,-999.0,69,-99.99,,,-99.99,,2013-01-21 23:03:00,
2013-01-21 17:12:00,-2.0,-10.0,30.40,NW,310,1.0,-999.0,69,-99.99,,,-99.99,,2013-01-21 23:12:00,
2013-01-21 17:22:00,-2.0,-9.0,30.40,NW,310,1.0,-999.0,70,-99.99,,,-99.99,,2013-01-21 23:22:00,
2013-01-21 17:33:00,-3.0,-10.0,30.40,NW,310,1.0,-999.0,71,-99.99,,,-99.99,,2013-01-21 23:33:00,
2013-01-21 17:42:00,-3.0,-10.0,30.40,NW,310,1.0,-999.0,71,-99.99,,,-99.99,,2013-01-21 23:42:00,
2013-01-21 17:53:00,-3.0,-10.0,30.40,NW,310,0.0,-999.0,71,-99.99,,,-99.99,,2013-01-21 23:53:00,
2013-01-21 18:02:00,-3.0,-10.0,30.40,NW,310,0.0,-999.0,72,-99.99,,,-99.99,,2013-01-22 00:02:00,
2013-01-21 18:12:00,-3.0,-10.0,30.40,NW,310,0.0,-999.0,72,-99.99,,,-99.99,,2013-01-22 00:12:00,
2013-01-21 18:22:00,-3.0,-10.0,30.40,NW,310,0.0,-999.0,72,-99.99,,,-99.99,,2013-01-22 00:22:00,
2013-01-21 18:32:00,-3.0,-10.0,30.40,NW,310,0.0,-999.0,72,-99.99,,,-99.99,,2013-01-22 00:32:00,
2013-01-21 18:42:00,-3.0,-10.0,30.40,NW,310,0.0,-999.0,72,-99.99,,,-99.99,,2013-01-22 00:42:00,
2013-01-21 18:53:00,-4.0,-11.0,30.40,NW,310,0.0,-999.0,71,-99.99,,,-99.99,,2013-01-22 00:53:00,
2013-01-21 19:02:00,-4.0,-11.0,30.40,NW,311,0.0,-999.0,71,-99.99,,,-99.99,,2013-01-22 01:02:00,
2013-01-21 19:12:00,-4.0,-11.0,30.40,NW,311,0.0,-999.0,71,-99.99,,,-99.99,,2013-01-22 01:12:00,
2013-01-21 19:23:00,-4.0,-11.0,30.40,NW,311,0.0,-999.0,72,-99.99,,,-99.99,,2013-01-22 01:23:00,
2013-01-21 19:32:00,-4.0,-11.0,30.41,NW,311,0.0,-999.0,72,-99.99,,,-99.99,,2013-01-22 01:32:00,
2013-01-21 19:42:00,-4.0,-11.0,30.41,NW,311,0.0,-999.0,72,-99.99,,,-99.99,,2013-01-22 01:42:00,
2013-01-21 19:52:00,-5.0,-11.0,30.41,NW,311,0.0,-999.0,73,-99.99,,,-99.99,,2013-01-22 01:52:00,
2013-01-21 20:02:00,-5.0,-11.0,30.42,NW,311,0.0,-999.0,73,-99.99,,,-99.99,,2013-01-22 02:02:00,
2013-01-21 20:12:00,-5.0,-11.0,30.42,NW,311,0.0,-999.0,73,-99.99,,,-99.99,,2013-01-22 02:12:00,
2013-01-21 20:22:00,-6.0,-12.0,30.42,NW,311,0.0,-999.0,74,-99.99,,,-99.99,,2013-01-22 02:22:00,
2013-01-21 20:32:00,-6.0,-12.0,30.42,NW,311,0.0,-999.0,75,-99.99,,,-99.99,,2013-01-22 02:32:00,
2013-01-21 20:43:00,-6.0,-12.0,30.42,NW,311,0.0,-999.0,75,-99.99,,,-99.99,,2013-01-22 02:43:00,
2013-01-21 20:53:00,-6.0,-12.0,30.42,NW,311,0.0,-999.0,75,-99.99,,,-99.99,,2013-01-22 02:53:00,
2013-01-21 21:02:00,-7.0,-13.0,30.42,NW,311,0.0,-999.0,75,-99.99,,,-99.99,,2013-01-22 03:02:00,
2013-01-21 21:12:00,-7.0,-13.0,30.42,NW,311,0.0,-999.0,75,-99.99,,,-99.99,,2013-01-22 03:12:00,
2013-01-21 21:22:00,-7.0,-13.0,30.42,NW,311,0.0,-999.0,76,-99.99,,,-99.99,,2013-01-22 03:22:00,
2013-01-21 21:32:00,-7.0,-13.0,30.42,NW,311,0.0,-999.0,76,-99.99,,,-99.99,,2013-01-22 03:32:00,
2013-01-21 21:42:00,-7.0,-13.0,30.42,NW,311,0.0,-999.0,76,-99.99,,,-99.99,,2013-01-22 03:42:00,
2013-01-21 21:52:00,-7.0,-13.0,30.42,NW,311,0.0,-999.0,76,-99.99,,,-99.99,,2013-01-22 03:52:00,
2013-01-21 22:02:00,-7.0,-13.0,30.42,NW,311,0.0,-999.0,76,-99.99,,,-99.99,,2013-01-22 04:02:00,
2013-01-21 22:12:00,-7.0,-13.0,30.42,NW,311,0.0,-999.0,76,-99.99,,,-99.99,,2013-01-22 04:12:00,
2013-01-21 22:22:00,-8.0,-13.0,30.42,NW,311,0.0,-999.0,77,-99.99,,,-99.99,,2013-01-22 04:22:00,
2013-01-21 22:32:00,-8.0,-13.0,30.42,NW,311,0.0,-999.0,77,-99.99,,,-99.99,,2013-01-22 04:32:00,
2013-01-21 22:42:00,-8.0,-13.0,30.42,NW,311,0.0,-999.0,77,-99.99,,,-99.99,,2013-01-22 04:42:00,
2013-01-21 22:52:00,-9.0,-14.0,30.43,NW,311,0.0,-999.0,77,-99.99,,,-99.99,,2013-01-22 04:52:00,
2013-01-21 23:04:00,-9.0,-14.0,30.43,NW,311,0.0,-999.0,77,-99.99,,,-99.99,,2013-01-22 05:04:00,
2013-01-21 23:12:00,-9.0,-14.0,30.43,NW,311,0.0,-999.0,77,-99.99,,,-99.99,,2013-01-22 05:12:00,
2013-01-21 23:22:00,-9.0,-14.0,30.44,NW,311,0.0,-999.0,78,-99.99,,,-99.99,,2013-01-22 05:22:00,
2013-01-21 23:32:00,-9.0,-14.0,30.44,NW,311,0.0,-999.0,78,-99.99,,,-99.99,,2013-01-22 05:32:00,
2013-01-21 23:42:00,-9.0,-14.0,30.44,NW,311,0.0,-999.0,78,-99.99,,,-99.99,,2013-01-22 05:42:00,
2013-01-21 23:52:00,-9.0,-14.0,30.44,NW,311,0.0,-999.0,78,-99.99,,,-99.99,,2013-01-22 05:52:00,